{"data":{"norad_id":47788,"epoch":"2026-09-20T00:59:29.332608Z","epoch_age_seconds":65304,"freshness":"FRESH","line1":"1 47788U 21018B   26263.04131172  .00056535  00000+0  10267-2 0  9995","line2":"2 47788  53.1529  23.9975 0001712 340.7472  19.3472 15.49043625307009","mean_motion":15.49043625,"eccentricity":0.0001712,"inclination_deg":53.1529,"raan_deg":23.9975,"arg_perigee_deg":340.7472,"mean_anomaly_deg":19.3472,"bstar":0.0010267,"rev_number":30700,"period_min":92.960583986135,"perigee_km":418.35877457943,"apogee_km":420.68629320384,"semimajor_km":6797.6595338916,"source":"CELESTRAK","updated_at":"2026-09-20T09:00:38.604467Z"}}